Weather History for KRIV - June, 2013

Change the Weather History Date:

Friday, June 14, 2013

  Actual Average Record
Temperature  
Mean Temperature 69 °F -  
Max Temperature 87 °F 82 °F 100 °F (2000)
Min Temperature 51 °F 55 °F 51 °F (2013)
Cooling Degree Days 4    
Growing Degree Days 19 (Base 50)    
Moisture  
Dew Point 56 °F    
Average Humidity 67    
Maximum Humidity 91    
Minimum Humidity 41    
Precipitation  
Precipitation 0.00 in - - ()
Sea Level Pressure  
Sea Level Pressure 29.87 in    
Wind  
Wind Speed 4 mph (NW)    
Max Wind Speed 15 mph    
Max Gust Speed -    
Visibility 10 miles    
Events      
Averages and records for this station are not official NWS values.
T = Trace of Precipitation, MM = Missing Value Source: NWS Daily Summary

Daily Weather History Graph

Daily Weather History Graph

Search for Another Location

Airport or City:

Trip Planner

Search our weather history database for the weather conditions in past years. The results will help you decide how hot, cold, wet, or windy it might be!

Date:

Astronomy

Jun. 14, 2013 Rise Set
Actual Time 5:37 AM PDT 8:01 PM PDT
Civil Twilight 5:08 AM PDT 8:30 PM PDT
Nautical Twilight 4:32 AM PDT 9:06 PM PDT
Astronomical Twilight 3:53 AM PDT 9:45 PM PDT
Moon 11:03 AM PDT (6/14) 11:54 PM PDT (6/14)
Length of Visible Light 15h 22m
Length of Day
14h 23m
Waxing Crescent, 31% of the Moon is Illuminated
Jun 14
Waxing Crescent
Jun 16
First Quarter
Jun 23
Full
Jun 29
Last Quarter
Jul 8
New

Hourly Weather History & Observations

Time (PDT) Temp. Heat Index Dew Point Humidity Pressure Visibility Wind Dir Wind Speed Gust Speed Precip Events Conditions
12:58 AM 58.1 °F - 55.0 °F 90% 29.90 in 10.0 mi WNW 2.3 mph - N/A   Clear
1:58 AM 55.6 °F - 51.8 °F 87% 29.89 in 10.0 mi Calm Calm - N/A   Clear
2:58 AM 54.3 °F - 50.0 °F 85% 29.88 in 10.0 mi Calm Calm - N/A   Clear
3:58 AM 53.2 °F - 50.2 °F 89% 29.88 in 10.0 mi Calm Calm - N/A   Clear
4:58 AM 51.6 °F - 47.5 °F 86% 29.88 in 10.0 mi Calm Calm - N/A   Clear
5:58 AM 51.4 °F - 48.4 °F 89% 29.89 in 10.0 mi Calm Calm - N/A   Clear
6:58 AM 60.3 °F - 57.6 °F 91% 29.89 in 9.0 mi NNW 3.5 mph - N/A   Clear
7:58 AM 63.3 °F - 59.0 °F 86% 29.89 in 8.0 mi NNW 4.6 mph - N/A   Clear
8:58 AM 67.3 °F - 60.1 °F 78% 29.90 in 9.0 mi NW 3.5 mph - N/A   Clear
9:58 AM 71.8 °F - 60.3 °F 67% 29.89 in 10.0 mi North 2.3 mph - N/A   Clear
10:58 AM 75.7 °F - 59.7 °F 57% 29.88 in 10.0 mi Variable 3.5 mph - N/A   Clear
11:58 AM 80.4 °F 81.0 °F 59.2 °F 48% 29.87 in 10.0 mi Variable 5.8 mph - N/A   Clear
12:58 PM 83.8 °F 84.0 °F 60.6 °F 45% 29.86 in 10.0 mi NW 8.1 mph - N/A   Partly Cloudy
1:58 PM 84.9 °F 85.0 °F 61.0 °F 44% 29.85 in 10.0 mi WNW 9.2 mph - N/A   Clear
2:58 PM 87.1 °F 87.0 °F 60.4 °F 41% 29.83 in 10.0 mi NW 6.9 mph - N/A   Clear
3:58 PM 86.5 °F 86.8 °F 61.3 °F 43% 29.82 in 10.0 mi WNW 10.4 mph - N/A   Clear
4:55 PM 84.2 °F 84.4 °F 60.8 °F 45% 29.83 in 10.0 mi West 13.8 mph - N/A   Clear
5:55 PM 82.4 °F 82.5 °F 59.0 °F 45% 29.82 in 10.0 mi West 12.7 mph - N/A   Clear
6:55 PM 78.8 °F - 57.2 °F 47% 29.84 in 10.0 mi West 13.8 mph - N/A   Clear
7:55 PM 69.8 °F - 55.4 °F 60% 29.87 in 10.0 mi WNW 15.0 mph - N/A   Clear
8:55 PM 66.2 °F - 53.6 °F 64% 29.89 in 10.0 mi WNW 6.9 mph - N/A   Clear
9:55 PM 64.4 °F - 55.4 °F 73% 29.91 in 10.0 mi WNW 10.4 mph - N/A   Clear
10:55 PM 62.6 °F - 55.4 °F 77% 29.89 in 10.0 mi WNW 9.2 mph - N/A   Clear